Location: Archemont
(49.1579°N, 1.7598°E)
Time: 10:24:54
(UTC+00:00)

deb Explorer IX - Pass Details

Date: 17 April 2024
Orbit: 513 x 891 km, 38.7° (Epoch: 23 May)

Event Time Altitude Azimuth Distance (km) Brightness Sun altitude
Rises 11:41:07 0° 212° (SSW) 3,462 ? 51.5°
Maximum altitude 11:48:25 18° 154° (SSE) 2,081 ? 51.6°
Drops below altitude 10° 11:52:21 10° 115° (ESE) 2,572 ? 51.6°
Sets 11:55:45 0° 97° (E) 3,489 ? 51.6°
